Regional Weather Roundup
Issued by NWS

Home | Current Version | Previous Version | Graphics & Text | Print | Product List | Glossary On
Versions: 1 2 3 4 5 6 7 8 9 10 11 12 13 14 15 16 17 18 19 20 21 22 23 24 25 26 27 28 29 30 31 32 33 34 35 36 37 38 39 40 41 42 43 44 45 46 47 48 49 50
298
ASUS43 KTOP 270308
RWRKS

WEATHER ROUNDUP FOR KANSAS
NATIONAL WEATHER SERVICE GOODLAND KS
1000 PM CDT SUN MAR 26 2017

NOTE:  "FAIR" INDICATES FEW OR NO CLOUDS BELOW 12,000 FEET WITH NO
SIGNIFICANT WEATHER AND/OR OBSTRUCTIONS TO VISIBILITY.

KSZ001>006-013>018-027>032-041>047-270400-
NORTHWEST KANSAS

CITY           SKY/WX    TMP DP  RH WIND       PRES   REMARKS
GOODLAND       CLEAR     37  37 100 S5        29.94R
HILL CITY      CLOUDY    46  45  96 N5        29.95R
RUSSELL        CLOUDY    46  45  96 N7        29.91R
$$

KSZ061>065-074>080-084>089-270400-
SOUTHWEST KANSAS

CITY           SKY/WX    TMP DP  RH WIND       PRES   REMARKS
DODGE CITY     CLOUDY    45  43  93 N15       29.91R
ELKHART          N/A     41  33  73 NW7         N/A
GARDEN CITY    CLOUDY    43  41  93 N13       29.94R
GREAT BEND     CLOUDY    47  45  93 N12       29.91R
LIBERAL        CLOUDY    46  37  71 NW14      29.94R
PRATT          CLOUDY    44  43  97 N16       29.87S
$$

KSZ066>073-081>083-090>101-270400-
SOUTHEAST KANSAS

CITY           SKY/WX    TMP DP  RH WIND       PRES   REMARKS
CHANUTE        CLOUDY    55  48  77 NE16      29.82F
COFFEYVILLE    CLOUDY    58  51  78 NE14      29.78R
HUTCHINSON     HVY RAIN  48  47  96 W10       29.89R FOG
MEDICINE LODGE   N/A     48  45  89 N14G24    29.83R
NEWTON         RAIN      48  48 100 E12       29.87R FOG
PARSONS        CLOUDY    57  51  80 VRB7G17   29.81R
WICHITA INTL   TSTM      51  50  96 NE13      29.80F
WICHITA JABRA  RAIN      50  49  96 NE10      29.87S
WICHITA MCCONL RAIN      50  48  93 NE25      29.80F
WINFIELD       LGT RAIN  53  51  93 NE16G26   29.80F
$$

KSZ007>012-019>026-033>040-048>060-102>105-270400-
NORTHEAST KANSAS

CITY           SKY/WX    TMP DP  RH WIND       PRES   REMARKS
CONCORDIA      CLOUDY    47  46  97 NE3       29.92R
EMPORIA        CLOUDY    48  48 100 NE12      29.87R
LAWRENCE       LGT RAIN  48  47  96 E9        29.88F
MANHATTAN      LGT RAIN  48  46  93 NE8       29.89S
MARYSVILLE     DRIZZLE   45  45 100 NE7       29.92S
OLATHE IND     CLOUDY    49  45  86 E5        29.90F
OLATHE EXE     MOCLDY    49  46  90 NE8       29.88F
SALINA         CLOUDY    50  47  89 NE8       29.90R
TOPEKA BILLARD CLOUDY    48  48 100 NE9       29.87F
TOPEKA FORBES  CLOUDY    49  47  93 E5        29.89S
$$




USA.gov is the U.S. government's official web portal to all federal, state and local government web resources and services.